Location: Dumpton Point
(51.3500°N, 1.4433°E)
Time: 22:03:15
(UTC+00:00)

Vanguard 1 - Pass Details

Date: 02 October 2022
Orbit: 650 x 3831 km, 34.2° (Epoch: 03 December)

Event Time Altitude Azimuth Distance (km) Brightness Sun altitude
Rises 10:59:05 0° 188° (S) 7,735 15.5 34.2°
Reaches altitude 10° 11:09:37 10° 166° (SSE) 6,130 15.5 34.5°
Maximum altitude 11:15:39 12° 146° (SE) 5,439 15.0 34.7°
Drops below altitude 10° 11:20:51 10° 126° (SE) 5,159 14.4 34.8°
Sets 11:27:33 0° 100° (E) 5,429 14.0 34.9°
